Weather reports worldwide

Advertisment
Spa/La Sauveniere, Belgium (6490): temperature & dewpoint: 14.10.2020 16:00:00 - 20.10.2020 16:00:00 (CEST)Spa/La Sauveniere, Belgium (6490): wind speed & gusts: 14.10.2020 16:00:00 - 20.10.2020 16:00:00 (CEST)Spa/La Sauveniere, Belgium (6490): wind direction: 14.10.2020 16:00:00 - 20.10.2020 16:00:00 (CEST)Spa/La Sauveniere, Belgium (6490): reduced air pressure: 14.10.2020 16:00:00 - 20.10.2020 16:00:00 (CEST)Spa/La Sauveniere, Belgium (6490): visibility: 14.10.2020 16:00:00 - 20.10.2020 16:00:00 (CEST)
Date & Time tt [°C] td [°C] ff [km/h] ff [kn] fx [km/h] fx [kn] dd ppp [hPa] vv [km]
20.10.2020 16:00:00 - - - - - - - - -
20.10.2020 15:00:00 - - - - - - - - -
20.10.2020 14:00:00 - - - - - - - - -
20.10.2020 13:00:00 - - - - - - - - -
20.10.2020 12:00:00 11,2 7,0 29 16 47 25 S 1010,9 30
20.10.2020 11:00:00 9,6 6,4 25 14 - - S 1011,2 40
20.10.2020 10:00:00 8,8 5,8 25 14 50 27 S 1011,2 35
20.10.2020 09:00:00 8,3 5,6 32 18 47 25 S 1010,5 35
20.10.2020 08:00:00 7,6 5,6 29 16 - - SSE 1011,1 26
20.10.2020 07:00:00 7,4 4,0 32 18 50 27 SSE 1011,2 30
20.10.2020 06:00:00 6,9 4,0 32 18 47 25 SSE 1011,3 30
20.10.2020 05:00:00 6,8 3,8 32 18 - - SSE 1012,2 35
20.10.2020 04:00:00 7,1 2,9 29 16 47 25 SSE 1012,7 40
20.10.2020 03:00:00 6,7 2,6 32 18 50 27 SSE 1013,2 35
20.10.2020 02:00:00 6,6 2,1 36 19 - - SSE 1013,9 30
20.10.2020 01:00:00 6,4 2,0 40 21 54 29 SSE 1014,6 40
20.10.2020 00:00:00 6,7 2,2 36 19 54 29 SSE 1015,1 35
19.10.2020 23:00:00 6,9 2,4 40 21 - - SSE 1015,8 30
19.10.2020 22:00:00 6,7 3,0 29 16 43 23 SSE 1016,7 25
19.10.2020 21:00:00 6,6 3,5 22 12 32 18 SSE 1017,6 24
19.10.2020 20:00:00 7,0 3,6 14 8 - - SSE 1018,5 27
19.10.2020 19:00:00 7,1 3,5 7 4 14 8 SE 1018,8 35
19.10.2020 18:00:00 8,5 4,3 7 4 18 10 SSE 1019,5 35
19.10.2020 17:00:00 9,8 4,2 11 6 - - SE 1019,7 30
19.10.2020 16:00:00 10,1 4,9 11 6 22 12 S 1020,3 35
19.10.2020 15:00:00 8,1 4,7 11 6 29 16 SSE 1021,6 30
19.10.2020 14:00:00 8,8 5,2 14 8 - - SSE 1021,8 23
19.10.2020 13:00:00 7,6 5,4 14 8 25 14 SSE 1022,8 -
19.10.2020 12:00:00 6,2 5,2 18 10 25 14 SSE 1023,6 5
19.10.2020 11:00:00 5,9 5,5 11 6 - - SSE 1023,7 2,7
19.10.2020 10:00:00 5,7 5,4 11 6 18 10 SSE 1023,4 2,7
19.10.2020 09:00:00 5,4 4,9 14 8 18 10 SSE 1023,2 2,7
19.10.2020 08:00:00 5,5 5,2 11 6 - - SSE 1022,9 3,3
19.10.2020 07:00:00 6,1 5,5 11 6 14 8 S 1023,0 -
19.10.2020 06:00:00 6,4 5,5 7 4 11 6 SSW 1023,2 9
19.10.2020 05:00:00 6,5 5,2 7 4 - - SW 1023,4 13
19.10.2020 04:00:00 6,3 5,6 7 4 11 6 S 1023,7 -
19.10.2020 03:00:00 6,3 5,6 7 4 11 6 SSW 1023,8 -
19.10.2020 02:00:00 6,6 5,7 7 4 - - SW 1023,8 -
19.10.2020 01:00:00 6,9 6,1 7 4 7 4 SW 1023,8 -
19.10.2020 00:00:00 7,1 6,1 4 2 14 8 WSW 1023,9 8
18.10.2020 23:00:00 7,0 5,8 7 4 - - SW 1023,8 10
18.10.2020 22:00:00 6,9 5,8 7 4 14 8 SSW 1023,7 10
18.10.2020 21:00:00 7,0 5,8 4 2 11 6 SW 1023,7 11
18.10.2020 20:00:00 7,2 5,5 7 4 - - SSW 1023,5 13
18.10.2020 19:00:00 7,0 5,7 4 2 7 4 SE 1023,3 14
18.10.2020 18:00:00 7,8 6,0 7 4 7 4 SW 1022,7 13
18.10.2020 17:00:00 8,1 5,3 4 2 - - W 1022,8 12
18.10.2020 16:00:00 8,7 4,5 7 4 14 8 W 1023,0 23
18.10.2020 15:00:00 8,3 4,6 7 4 14 8 W 1023,1 13
18.10.2020 14:00:00 8,6 4,7 4 2 - - W 1023,3 13
18.10.2020 13:00:00 8,0 4,5 4 2 11 6 - 1023,8 11
18.10.2020 12:00:00 6,9 3,9 4 2 11 6 SW 1024,0 -
18.10.2020 11:00:00 6,6 4,1 4 2 - - WSW 1023,8 -
18.10.2020 10:00:00 5,5 3,4 7 4 11 6 SSW 1023,8 -
18.10.2020 09:00:00 4,7 3,5 7 4 11 6 S 1023,6 5
18.10.2020 08:00:00 4,3 3,3 4 2 - - SSW 1023,2 4,0
18.10.2020 07:00:00 4,3 3,4 7 4 11 6 SW 1022,9 4,4
18.10.2020 06:00:00 3,4 2,8 4 2 7 4 SSW 1023,2 3,2
18.10.2020 05:00:00 3,4 2,6 7 4 - - SW 1023,2 2,9
18.10.2020 04:00:00 3,1 2,2 7 4 7 4 SSW 1023,2 2,6
18.10.2020 03:00:00 3,3 2,6 7 4 7 4 S 1023,2 2,0
18.10.2020 02:00:00 3,0 2,6 7 4 - - SSE 1023,2 1,4
18.10.2020 01:00:00 3,7 3,0 4 2 7 4 S 1023,1 1,9
18.10.2020 00:00:00 4,3 3,5 4 2 7 4 SSE 1022,8 2,4
17.10.2020 23:00:00 4,3 3,5 4 2 - - SSE 1022,7 3,5
17.10.2020 22:00:00 4,5 3,8 0 0 4 2 N 1022,6 3,8
17.10.2020 21:00:00 4,2 3,3 4 2 7 4 S 1022,5 4,8
17.10.2020 20:00:00 5,1 4,1 4 2 - - SSE 1022,1 4,5
17.10.2020 19:00:00 6,2 4,4 4 2 7 4 NNW 1021,4 -
17.10.2020 18:00:00 6,6 3,6 4 2 11 6 NW 1020,9 10
17.10.2020 17:00:00 7,1 3,4 4 2 - - N 1020,7 12
17.10.2020 16:00:00 7,2 2,9 7 4 11 6 N 1020,9 15
17.10.2020 15:00:00 7,0 2,9 4 2 7 4 WNW 1020,8 15
17.10.2020 14:00:00 6,4 2,7 7 4 - - NNW 1021,3 14
17.10.2020 13:00:00 6,4 3,6 4 2 7 4 NNW 1021,4 -
17.10.2020 12:00:00 5,6 4,3 4 2 7 4 NNE 1021,4 -
17.10.2020 11:00:00 5,5 4,2 4 2 - - N 1021,4 -
17.10.2020 10:00:00 5,0 4,3 4 2 4 2 ESE 1021,3 4,0
17.10.2020 09:00:00 4,4 4,0 0 0 4 2 N 1021,2 2,5
17.10.2020 08:00:00 3,8 3,3 4 2 - - SSW 1021,2 3,0
17.10.2020 07:00:00 3,7 3,3 4 2 7 4 S 1021,3 2,4
17.10.2020 06:00:00 4,5 4,1 4 2 4 2 SW 1021,2 4,1
17.10.2020 05:00:00 4,8 4,4 0 0 - - N 1021,2 3,9
17.10.2020 04:00:00 4,9 4,7 0 0 4 2 N 1021,6 3,8
17.10.2020 03:00:00 5,0 4,6 4 2 7 4 NNE 1021,8 3,1
17.10.2020 02:00:00 5,2 4,7 4 2 - - NE 1022,1 3,6
17.10.2020 01:00:00 5,4 5,0 4 2 7 4 N 1022,3 2,8
17.10.2020 00:00:00 5,5 4,9 4 2 11 6 NE 1022,7 3,7
16.10.2020 23:00:00 5,9 5,2 7 4 - - NNE 1022,5 4,3
16.10.2020 22:00:00 6,1 5,6 7 4 11 6 NNE 1022,4 3,7
16.10.2020 21:00:00 6,2 5,8 4 2 11 6 NE 1022,4 4,3
16.10.2020 20:00:00 6,4 5,7 4 2 - - NNE 1022,4 9
16.10.2020 19:00:00 6,1 5,6 4 2 14 8 NE 1022,0 -
16.10.2020 18:00:00 6,7 5,8 11 6 18 10 ENE 1021,6 -
16.10.2020 17:00:00 6,8 5,8 11 6 - - ENE 1021,6 -
16.10.2020 16:00:00 7,0 5,9 11 6 18 10 NE 1021,7 -
16.10.2020 15:00:00 6,6 5,9 7 4 18 10 ENE 1021,8 4,6
16.10.2020 14:00:00 6,2 5,8 11 6 - - NNE 1022,1 2,5
16.10.2020 13:00:00 6,1 5,5 7 4 14 8 NE 1022,4 3,2
16.10.2020 12:00:00 5,2 5,2 7 4 18 10 N 1022,7 0,1
16.10.2020 11:00:00 4,9 4,9 11 6 - - N 1022,7 -
16.10.2020 10:00:00 4,8 4,7 7 4 18 10 N 1022,4 0,1
16.10.2020 09:00:00 4,7 4,4 11 6 14 8 N 1022,2 0,3
16.10.2020 08:00:00 4,8 4,5 7 4 - - NNE 1022,0 0,9
16.10.2020 07:00:00 4,8 4,5 7 4 14 8 N 1021,7 1,5
16.10.2020 06:00:00 4,8 4,4 7 4 14 8 NE 1021,7 2,5
16.10.2020 05:00:00 5,2 4,8 7 4 - - N 1021,6 2,6
16.10.2020 04:00:00 5,0 4,8 4 2 11 6 N 1021,7 1,8
16.10.2020 03:00:00 5,0 4,8 0 0 18 10 N 1021,9 3,0
16.10.2020 02:00:00 5,9 5,4 7 4 - - NE 1021,5 4,2
16.10.2020 01:00:00 5,9 5,5 7 4 18 10 NNE 1021,4 2,6
16.10.2020 00:00:00 6,1 5,4 7 4 22 12 NE 1021,4 4,2
15.10.2020 23:00:00 6,0 5,4 11 6 - - NE 1021,2 1,5
15.10.2020 22:00:00 6,0 5,6 11 6 22 12 NE 1021,0 2,2
15.10.2020 21:00:00 5,9 5,5 11 6 18 10 NNE 1020,8 1,2
15.10.2020 20:00:00 5,9 5,7 11 6 - - NNE 1020,8 0,6
15.10.2020 19:00:00 5,9 5,6 7 4 25 14 NE 1020,3 1,2
15.10.2020 18:00:00 5,8 5,5 7 4 25 14 NNE 1020,0 1,4
15.10.2020 17:00:00 5,8 5,5 11 6 - - NNE 1019,6 1,3
15.10.2020 16:00:00 5,7 5,5 11 6 29 16 NNE 1019,2 0,8
15.10.2020 15:00:00 5,6 5,2 14 8 29 16 NNE 1019,3 1,4
15.10.2020 14:00:00 5,4 5,2 11 6 - - N 1019,7 0,8
15.10.2020 13:00:00 5,2 4,8 11 6 22 12 N 1020,1 1,5
15.10.2020 12:00:00 4,9 4,5 11 6 25 14 NNE 1020,0 1,4
15.10.2020 11:00:00 4,7 4,4 11 6 - - N 1019,5 1,2
15.10.2020 10:00:00 4,6 4,3 11 6 22 12 NNE 1019,2 0,7
15.10.2020 09:00:00 4,4 4,2 11 6 25 14 NNE 1019,0 0,7
15.10.2020 08:00:00 4,6 4,2 11 6 - - N 1018,6 1,1
15.10.2020 07:00:00 4,8 4,5 11 6 22 12 NNE 1018,2 0,9
15.10.2020 06:00:00 4,9 4,7 11 6 25 14 N 1017,7 1,1
15.10.2020 05:00:00 5,1 4,6 11 6 - - NNE 1017,8 2,0
15.10.2020 04:00:00 5,2 4,7 7 4 22 12 NNE 1018,0 3,0
15.10.2020 03:00:00 5,3 4,6 7 4 18 10 NNE 1018,1 5
15.10.2020 02:00:00 5,3 4,5 7 4 - - NNE 1018,1 -
15.10.2020 01:00:00 5,4 4,5 7 4 18 10 NNE 1018,0 9
15.10.2020 00:00:00 5,4 4,5 7 4 18 10 NNE 1018,1 11
14.10.2020 23:00:00 5,5 4,1 7 4 - - NNE 1018,1 13
14.10.2020 22:00:00 5,7 4,2 7 4 18 10 NNE 1018,0 45
14.10.2020 21:00:00 6,0 4,0 7 4 18 10 NNE 1017,9 45
14.10.2020 20:00:00 6,3 3,8 11 6 - - NNE 1017,8 45
14.10.2020 19:00:00 6,6 4,7 11 6 22 12 N 1017,4 25
14.10.2020 18:00:00 7,1 4,0 11 6 25 14 NNE 1017,1 25
14.10.2020 17:00:00 7,6 4,8 14 8 - - N 1016,9 24
14.10.2020 16:00:00 7,7 4,7 14 8 25 14 N 1016,9 15

tt = temperature
td = dewpoint
ff = wind speed
fx = gusts
dd = wind direction
ppp = reduced air pressure
vv = visibility

Next stations